N444BC KSNA-KCOS

Flight info

Callsign N444BC
Flight time 1h 40m
Altitude 45000
Route STAYY4 AVRRY LANCY FLG RSK J110 ALS DBRY5
Aircraft C750/M-SBDE3FGHRWXY/S

Departure

Time 2026-04-26 16:10
Airport John Wayne Orange County International Airport (KSNA)

Arrival

Time 2026-04-26 17:50
Airport City of Colorado Springs Municipal Airport (KCOS)
Time Latitude Longitude Altitude Speed Heading
2026-04-26 15:34 33.67185 -117.86704 47 ft 0 kts 205°
2026-04-26 16:00 33.67183 -117.86705 44 ft 2 kts 205°
2026-04-26 16:01 33.67156 -117.86733 46 ft 7 kts 250°
2026-04-26 16:01 33.67164 -117.86769 45 ft 2 kts 302°
2026-04-26 16:03 33.67180 -117.86790 52 ft 7 kts 322°
2026-04-26 16:03 33.67241 -117.86796 47 ft 10 kts 22°
2026-04-26 16:04 33.67296 -117.86746 46 ft 10 kts 46°
2026-04-26 16:04 33.67343 -117.86692 46 ft 9 kts 33°
2026-04-26 16:04 33.67395 -117.86659 47 ft 8 kts 28°
2026-04-26 16:04 33.67420 -117.86644 47 ft 3 kts 27°
2026-04-26 16:05 33.67450 -117.86625 47 ft 8 kts 28°
2026-04-26 16:05 33.67514 -117.86584 45 ft 13 kts 27°
2026-04-26 16:05 33.67599 -117.86530 45 ft 14 kts 28°
2026-04-26 16:05 33.67680 -117.86478 47 ft 13 kts 28°
2026-04-26 16:06 33.67758 -117.86429 47 ft 12 kts 27°
2026-04-26 16:06 33.67831 -117.86383 45 ft 12 kts 27°
2026-04-26 16:06 33.67900 -117.86339 45 ft 11 kts 28°
2026-04-26 16:06 33.67966 -117.86299 46 ft 10 kts 29°
2026-04-26 16:07 33.68028 -117.86271 47 ft 9 kts 355°
2026-04-26 16:07 33.68065 -117.86307 47 ft 4 kts 298°
2026-04-26 16:07 33.68077 -117.86334 48 ft 7 kts 297°
2026-04-26 16:07 33.68107 -117.86404 48 ft 11 kts 297°
2026-04-26 16:08 33.68118 -117.86428 48 ft 0 kts 298°
2026-04-26 16:09 33.68124 -117.86441 48 ft 4 kts 297°
2026-04-26 16:09 33.68141 -117.86481 48 ft 7 kts 298°
2026-04-26 16:09 33.68138 -117.86525 46 ft 3 kts 211°
2026-04-26 16:09 33.68134 -117.86528 45 ft 0 kts 206°
2026-04-26 16:10 33.68006 -117.86607 46 ft 68 kts 208°
2026-04-26 16:10 33.67283 -117.87068 105 ft 146 kts 210°
2026-04-26 16:10 33.66345 -117.87671 666 ft 161 kts 211°
2026-04-26 16:10 33.65298 -117.88314 1291 ft 177 kts 209°
2026-04-26 16:11 33.64060 -117.88732 1963 ft 193 kts 191°
2026-04-26 16:11 33.62689 -117.88893 2719 ft 202 kts 193°
2026-04-26 16:11 33.61340 -117.89407 3543 ft 204 kts 204°
2026-04-26 16:11 33.59978 -117.89892 4460 ft 207 kts 198°
2026-04-26 16:12 33.58514 -117.90034 5259 ft 217 kts 181°
2026-04-26 16:12 33.56985 -117.89677 6132 ft 230 kts 166°
2026-04-26 16:12 33.54246 -117.87956 8551 ft 223 kts 154°
2026-04-26 16:13 33.52873 -117.86998 9454 ft 234 kts 157°
2026-04-26 16:13 33.51449 -117.85960 10241 ft 248 kts 150°
2026-04-26 16:13 33.50135 -117.84508 10865 ft 269 kts 132°
2026-04-26 16:13 33.49248 -117.82427 11343 ft 296 kts 109°
2026-04-26 16:14 33.48667 -117.79932 11695 ft 323 kts 107°
2026-04-26 16:14 33.48041 -117.77305 12521 ft 333 kts 105°
2026-04-26 16:14 33.47858 -117.71362 12901 ft 383 kts 83°
2026-04-26 16:15 33.48739 -117.68321 13333 ft 388 kts 59°
2026-04-26 16:15 33.50106 -117.65546 14107 ft 389 kts 55°
2026-04-26 16:15 33.51523 -117.62746 14666 ft 396 kts 56°
2026-04-26 16:16 33.54246 -117.56907 15872 ft 407 kts 58°
2026-04-26 16:16 33.55660 -117.53937 16489 ft 412 kts 57°
2026-04-26 16:16 33.57077 -117.50921 17096 ft 419 kts 61°
2026-04-26 16:16 33.57983 -117.47567 17714 ft 427 kts 77°
2026-04-26 16:17 33.58229 -117.43999 18357 ft 433 kts 91°
2026-04-26 16:17 33.58133 -117.40374 18941 ft 437 kts 93°
2026-04-26 16:17 33.58033 -117.36711 19598 ft 441 kts 92°
2026-04-26 16:17 33.57950 -117.33012 20214 ft 447 kts 92°
2026-04-26 16:18 33.57867 -117.29266 20889 ft 451 kts 92°
2026-04-26 16:18 33.58229 -117.21680 22015 ft 464 kts 78°
2026-04-26 16:19 33.59844 -117.14142 23166 ft 475 kts 75°
2026-04-26 16:19 33.60664 -117.10274 23729 ft 480 kts 75°
2026-04-26 16:19 33.62054 -117.03714 24540 ft 489 kts 75°
2026-04-26 16:20 33.62784 -116.98349 25099 ft 496 kts 88°
2026-04-26 16:20 33.62646 -116.90016 26035 ft 504 kts 94°
2026-04-26 16:20 33.62541 -116.85791 26469 ft 509 kts 94°
2026-04-26 16:21 33.62439 -116.81520 26958 ft 514 kts 94°
2026-04-26 16:21 33.62325 -116.77210 27375 ft 519 kts 95°
2026-04-26 16:21 33.62204 -116.72861 27802 ft 525 kts 95°
2026-04-26 16:21 33.62086 -116.68462 28272 ft 530 kts 95°
2026-04-26 16:22 33.61970 -116.64016 28720 ft 536 kts 95°
2026-04-26 16:22 33.61848 -116.59586 29126 ft 541 kts 95°
2026-04-26 16:22 33.61718 -116.55050 29613 ft 546 kts 95°
2026-04-26 16:22 33.61590 -116.50500 30136 ft 547 kts 95°
2026-04-26 16:23 33.61460 -116.45912 30474 ft 552 kts 96°
2026-04-26 16:23 33.61326 -116.41299 30873 ft 555 kts 96°
2026-04-26 16:23 33.61190 -116.36670 31425 ft 555 kts 96°
2026-04-26 16:23 33.61053 -116.32044 31939 ft 556 kts 96°
2026-04-26 16:24 33.60929 -116.27398 32331 ft 559 kts 96°
2026-04-26 16:24 33.60823 -116.22736 32893 ft 559 kts 96°
2026-04-26 16:24 33.60713 -116.18063 33396 ft 560 kts 97°
2026-04-26 16:24 33.60581 -116.13387 33920 ft 561 kts 97°
2026-04-26 16:25 33.60524 -116.08697 34290 ft 566 kts 92°
2026-04-26 16:25 33.60959 -116.03972 34727 ft 572 kts 82°
2026-04-26 16:25 33.61921 -115.99354 35312 ft 571 kts 73°
2026-04-26 16:25 33.63293 -115.94896 35966 ft 568 kts 69°
2026-04-26 16:26 33.64689 -115.90527 36492 ft 568 kts 69°
2026-04-26 16:26 33.65632 -115.87534 36878 ft 567 kts 69°
2026-04-26 16:26 33.67463 -115.81692 37838 ft 562 kts 69°
2026-04-26 16:26 33.68846 -115.77318 38530 ft 559 kts 69°
2026-04-26 16:27 33.70229 -115.72953 39052 ft 557 kts 69°
2026-04-26 16:27 33.71593 -115.68605 39537 ft 556 kts 69°
2026-04-26 16:27 33.72951 -115.64259 40021 ft 555 kts 70°
2026-04-26 16:27 33.74310 -115.59924 40471 ft 554 kts 69°
2026-04-26 16:28 33.75711 -115.55617 40962 ft 552 kts 66°
2026-04-26 16:28 33.77226 -115.51374 41449 ft 551 kts 66°
2026-04-26 16:28 33.78746 -115.47158 41935 ft 550 kts 66°
2026-04-26 16:28 33.80250 -115.42930 42391 ft 549 kts 66°
2026-04-26 16:29 33.81718 -115.38758 42837 ft 548 kts 66°
2026-04-26 16:29 33.83208 -115.34545 43312 ft 547 kts 66°
2026-04-26 16:29 33.84704 -115.30345 43783 ft 546 kts 66°
2026-04-26 16:29 33.86192 -115.26147 44263 ft 545 kts 66°
2026-04-26 16:30 33.87669 -115.21948 44676 ft 541 kts 66°
2026-04-26 16:30 33.89137 -115.17777 44883 ft 544 kts 66°
2026-04-26 16:30 33.92142 -115.09259 44870 ft 561 kts 66°
2026-04-26 16:31 33.95221 -115.00478 44863 ft 577 kts 66°
2026-04-26 16:31 33.98369 -114.91492 44877 ft 585 kts 66°
2026-04-26 16:32 34.00993 -114.83973 44872 ft 586 kts 66°
2026-04-26 16:32 34.04148 -114.74915 44871 ft 586 kts 66°
2026-04-26 16:33 34.07298 -114.65842 44862 ft 586 kts 67°
2026-04-26 16:33 34.10437 -114.56778 44849 ft 586 kts 67°
2026-04-26 16:34 34.13578 -114.47682 44839 ft 586 kts 67°
2026-04-26 16:34 34.16711 -114.38580 44829 ft 586 kts 67°
2026-04-26 16:35 34.19839 -114.29470 44832 ft 587 kts 67°
2026-04-26 16:35 34.22940 -114.20409 44827 ft 588 kts 67°
2026-04-26 16:36 34.26057 -114.11280 44833 ft 587 kts 67°
2026-04-26 16:36 34.29378 -114.02270 44834 ft 586 kts 64°
2026-04-26 16:37 34.32754 -113.93308 44815 ft 584 kts 65°
2026-04-26 16:37 34.36114 -113.84341 44817 ft 585 kts 65°
2026-04-26 16:38 34.39474 -113.75375 44814 ft 585 kts 65°
2026-04-26 16:38 34.42819 -113.66401 44804 ft 585 kts 65°
2026-04-26 16:39 34.46160 -113.57431 44806 ft 585 kts 65°
2026-04-26 16:39 34.49475 -113.48492 44805 ft 585 kts 65°
2026-04-26 16:40 34.52808 -113.39490 44799 ft 585 kts 65°
2026-04-26 16:40 34.56127 -113.30495 44798 ft 585 kts 65°
2026-04-26 16:41 34.59443 -113.21487 44789 ft 584 kts 65°
2026-04-26 16:41 34.62750 -113.12476 44794 ft 584 kts 65°
2026-04-26 16:42 34.66055 -113.03447 44795 ft 585 kts 65°
2026-04-26 16:42 34.69351 -112.94416 44782 ft 585 kts 65°
2026-04-26 16:43 34.72643 -112.85368 44775 ft 585 kts 65°
2026-04-26 16:43 34.75930 -112.76311 44771 ft 585 kts 65°
2026-04-26 16:44 34.79210 -112.67249 44763 ft 585 kts 66°
2026-04-26 16:44 34.82482 -112.58180 44778 ft 585 kts 65°
2026-04-26 16:45 34.85731 -112.49151 44848 ft 582 kts 65°
2026-04-26 16:45 34.88972 -112.40119 44836 ft 582 kts 65°
2026-04-26 16:46 34.92209 -112.31070 44819 ft 582 kts 65°
2026-04-26 16:46 34.95419 -112.22074 44788 ft 582 kts 66°
2026-04-26 16:47 34.98646 -112.13003 44807 ft 582 kts 66°
2026-04-26 16:47 35.01862 -112.03939 44833 ft 582 kts 65°
2026-04-26 16:48 35.05074 -111.94851 44848 ft 582 kts 66°
2026-04-26 16:48 35.08277 -111.85772 44887 ft 582 kts 66°
2026-04-26 16:49 35.11471 -111.76689 44923 ft 578 kts 66°
2026-04-26 16:49 35.14627 -111.67764 44909 ft 576 kts 64°
2026-04-26 16:50 35.16514 -111.63462 44787 ft 575 kts 58°
2026-04-26 16:50 35.18550 -111.59253 44791 ft 575 kts 57°
2026-04-26 16:50 35.22571 -111.50798 44779 ft 575 kts 59°
2026-04-26 16:51 35.26518 -111.42281 44778 ft 575 kts 58°
2026-04-26 16:51 35.30533 -111.33798 44734 ft 580 kts 59°
2026-04-26 16:52 35.33855 -111.26594 44720 ft 582 kts 59°
2026-04-26 16:52 35.38540 -111.16605 44728 ft 581 kts 59°
2026-04-26 16:53 35.42536 -111.07952 44722 ft 586 kts 59°
2026-04-26 16:53 35.46576 -110.99266 44725 ft 586 kts 59°
2026-04-26 16:54 35.50587 -110.90561 44722 ft 586 kts 59°
2026-04-26 16:54 35.54612 -110.81845 44725 ft 586 kts 59°
2026-04-26 16:55 35.58575 -110.73211 44717 ft 582 kts 59°
2026-04-26 16:55 35.62558 -110.64536 44721 ft 583 kts 59°
2026-04-26 16:56 35.68514 -110.51499 44741 ft 583 kts 59°
2026-04-26 16:57 35.72461 -110.42838 44746 ft 580 kts 59°
2026-04-26 16:57 35.78365 -110.29837 44748 ft 580 kts 59°
2026-04-26 16:58 35.81635 -110.22615 44742 ft 580 kts 59°
2026-04-26 16:59 35.88179 -110.08116 44733 ft 578 kts 59°
2026-04-26 17:00 35.95957 -109.90802 44713 ft 579 kts 59°
2026-04-26 17:00 36.01794 -109.77748 44713 ft 578 kts 60°
2026-04-26 17:01 36.05668 -109.69057 44716 ft 576 kts 60°
2026-04-26 17:01 36.09535 -109.60358 44706 ft 577 kts 60°
2026-04-26 17:02 36.13394 -109.51656 44703 ft 577 kts 60°
2026-04-26 17:02 36.17243 -109.42950 44708 ft 574 kts 60°
2026-04-26 17:03 36.21056 -109.34307 44708 ft 572 kts 60°
2026-04-26 17:03 36.24864 -109.25653 44695 ft 572 kts 60°
2026-04-26 17:04 36.28669 -109.16979 44700 ft 572 kts 60°
2026-04-26 17:04 36.32447 -109.08349 44691 ft 576 kts 60°
2026-04-26 17:05 36.36272 -108.99585 44687 ft 577 kts 60°
2026-04-26 17:05 36.40089 -108.90819 44680 ft 577 kts 60°
2026-04-26 17:06 36.43895 -108.82050 44716 ft 577 kts 60°
2026-04-26 17:06 36.47682 -108.73305 44685 ft 571 kts 61°
2026-04-26 17:07 36.51439 -108.64607 44699 ft 572 kts 61°
2026-04-26 17:07 36.55194 -108.55888 44728 ft 572 kts 61°
2026-04-26 17:08 36.58944 -108.47159 44777 ft 572 kts 61°
2026-04-26 17:08 36.62691 -108.38413 44824 ft 574 kts 61°
2026-04-26 17:09 36.65807 -108.31123 44852 ft 574 kts 61°
2026-04-26 17:09 36.70169 -108.20889 44863 ft 575 kts 61°
2026-04-26 17:10 36.73917 -108.12066 44858 ft 575 kts 62°
2026-04-26 17:10 36.76861 -108.02810 44834 ft 575 kts 73°
2026-04-26 17:11 36.79322 -107.93308 44818 ft 576 kts 71°
2026-04-26 17:11 36.81996 -107.83902 44783 ft 575 kts 72°
2026-04-26 17:12 36.85798 -107.69691 44809 ft 574 kts 71°
2026-04-26 17:13 36.89625 -107.55484 44812 ft 575 kts 72°
2026-04-26 17:14 36.93441 -107.41360 44795 ft 575 kts 72°
2026-04-26 17:14 36.97241 -107.27109 44786 ft 576 kts 72°
2026-04-26 17:15 37.01023 -107.12841 44789 ft 576 kts 72°
2026-04-26 17:16 37.03544 -107.03331 44792 ft 576 kts 72°
2026-04-26 17:16 37.06054 -106.93781 44806 ft 577 kts 72°
2026-04-26 17:17 37.08563 -106.84234 44808 ft 577 kts 72°
2026-04-26 17:17 37.11058 -106.74681 44806 ft 577 kts 72°
2026-04-26 17:18 37.13540 -106.65158 44807 ft 565 kts 72°
2026-04-26 17:18 37.15948 -106.55873 44791 ft 564 kts 72°
2026-04-26 17:19 37.19581 -106.41813 44781 ft 565 kts 72°
2026-04-26 17:19 37.21995 -106.32418 44761 ft 565 kts 72°
2026-04-26 17:20 37.23613 -106.26110 44762 ft 569 kts 72°
2026-04-26 17:20 37.26416 -106.15134 44728 ft 568 kts 72°
2026-04-26 17:21 37.28822 -106.05677 44710 ft 568 kts 72°
2026-04-26 17:21 37.31221 -105.96213 44720 ft 572 kts 73°
2026-04-26 17:22 37.32428 -105.91436 44878 ft 573 kts 73°
2026-04-26 17:22 37.33656 -105.86663 44883 ft 573 kts 71°
2026-04-26 17:22 37.37293 -105.77787 44878 ft 571 kts 53°
2026-04-26 17:23 37.42453 -105.70250 44882 ft 568 kts 43°
2026-04-26 17:23 37.47939 -105.63107 44820 ft 569 kts 46°
2026-04-26 17:24 37.52951 -105.55405 44782 ft 568 kts 48°
2026-04-26 17:24 37.58194 -105.48052 44733 ft 567 kts 45°
2026-04-26 17:25 37.63325 -105.40477 44730 ft 568 kts 48°
2026-04-26 17:25 37.68486 -105.33014 44714 ft 562 kts 46°
2026-04-26 17:26 37.73617 -105.25527 44727 ft 566 kts 47°
2026-04-26 17:26 37.78772 -105.17968 44670 ft 564 kts 46°
2026-04-26 17:27 37.81321 -105.14270 43951 ft 554 kts 47°
2026-04-26 17:27 37.83818 -105.10598 43006 ft 548 kts 47°
2026-04-26 17:27 37.86286 -105.06947 42064 ft 543 kts 47°
2026-04-26 17:27 37.88738 -105.03345 41103 ft 539 kts 46°
2026-04-26 17:28 37.91189 -104.99760 40071 ft 537 kts 46°
2026-04-26 17:28 37.93616 -104.96187 39137 ft 534 kts 46°
2026-04-26 17:28 37.96020 -104.92627 38203 ft 530 kts 46°
2026-04-26 17:28 37.98359 -104.89162 36308 ft 511 kts 46°
2026-04-26 17:29 38.00736 -104.85667 33881 ft 532 kts 46°
2026-04-26 17:29 38.02341 -104.83307 32702 ft 534 kts 46°
2026-04-26 17:29 38.05445 -104.78678 31364 ft 493 kts 46°
2026-04-26 17:29 38.07609 -104.75454 29949 ft 471 kts 46°
2026-04-26 17:30 38.09737 -104.72319 27584 ft 467 kts 46°
2026-04-26 17:30 38.11892 -104.69250 25624 ft 457 kts 43°
2026-04-26 17:30 38.14318 -104.66934 24256 ft 428 kts 25°
2026-04-26 17:30 38.16987 -104.65504 22771 ft 399 kts
2026-04-26 17:31 38.19638 -104.64973 20589 ft 387 kts 356°
2026-04-26 17:31 38.22321 -104.64936 18760 ft 381 kts 354°
2026-04-26 17:31 38.24904 -104.64905 17321 ft 364 kts 355°
2026-04-26 17:31 38.27420 -104.64835 15829 ft 360 kts 355°
2026-04-26 17:32 38.29895 -104.64766 14476 ft 349 kts 354°
2026-04-26 17:32 38.32265 -104.64714 13876 ft 338 kts 354°
2026-04-26 17:32 38.34628 -104.64676 13416 ft 339 kts 354°
2026-04-26 17:32 38.36983 -104.64253 13045 ft 344 kts 12°
2026-04-26 17:33 38.39216 -104.63288 12988 ft 338 kts 14°
2026-04-26 17:33 38.41438 -104.62320 12923 ft 337 kts 14°
2026-04-26 17:33 38.43655 -104.61334 12866 ft 337 kts 14°
2026-04-26 17:34 38.48084 -104.59360 12623 ft 332 kts 14°
2026-04-26 17:34 38.50266 -104.58392 12481 ft 332 kts 14°
2026-04-26 17:34 38.52442 -104.57426 12339 ft 332 kts 15°
2026-04-26 17:34 38.54625 -104.56454 12134 ft 332 kts 15°
2026-04-26 17:35 38.56806 -104.55482 11873 ft 332 kts 15°
2026-04-26 17:35 38.58987 -104.54509 11627 ft 332 kts 15°
2026-04-26 17:35 38.61168 -104.53545 11376 ft 331 kts 15°
2026-04-26 17:35 38.63343 -104.52571 11128 ft 331 kts 16°
2026-04-26 17:36 38.65516 -104.51589 10884 ft 331 kts 16°
2026-04-26 17:36 38.67660 -104.50631 10694 ft 319 kts 16°
2026-04-26 17:36 38.69736 -104.49707 10453 ft 314 kts 17°
2026-04-26 17:36 38.71793 -104.48790 10209 ft 313 kts 17°
2026-04-26 17:37 38.73822 -104.47882 9984 ft 313 kts 17°
2026-04-26 17:37 38.75861 -104.46967 9978 ft 312 kts 17°
2026-04-26 17:37 38.77907 -104.46050 9983 ft 312 kts 17°
2026-04-26 17:38 38.82014 -104.44208 9987 ft 312 kts 17°
2026-04-26 17:38 38.84069 -104.43286 9989 ft 313 kts 17°
2026-04-26 17:38 38.86123 -104.42363 9995 ft 312 kts 17°
2026-04-26 17:38 38.88173 -104.41442 9997 ft 312 kts 17°
2026-04-26 17:39 38.90228 -104.40517 9997 ft 313 kts 17°
2026-04-26 17:39 38.92308 -104.39749 9953 ft 311 kts
2026-04-26 17:39 38.94378 -104.39610 9978 ft 289 kts 357°
2026-04-26 17:39 38.96396 -104.39736 9980 ft 290 kts 349°
2026-04-26 17:40 38.98377 -104.40142 9978 ft 287 kts 343°
2026-04-26 17:40 38.99652 -104.40557 9976 ft 284 kts 339°
2026-04-26 17:40 39.02119 -104.41736 9980 ft 281 kts 329°
2026-04-26 17:40 39.03846 -104.42892 9980 ft 278 kts 324°
2026-04-26 17:41 39.05453 -104.44262 9975 ft 276 kts 317°
2026-04-26 17:41 39.06922 -104.45819 9977 ft 272 kts 311°
2026-04-26 17:41 39.08241 -104.47538 9961 ft 268 kts 305°
2026-04-26 17:41 39.09409 -104.49407 9978 ft 267 kts 299°
2026-04-26 17:42 39.10416 -104.51398 9983 ft 263 kts 294°
2026-04-26 17:42 39.11251 -104.53473 9983 ft 260 kts 288°
2026-04-26 17:42 39.11922 -104.55643 9971 ft 263 kts 284°
2026-04-26 17:42 39.12423 -104.57882 9963 ft 260 kts 279°
2026-04-26 17:43 39.12748 -104.60125 9968 ft 258 kts 273°
2026-04-26 17:43 39.12903 -104.62423 9959 ft 257 kts 269°
2026-04-26 17:43 39.12689 -104.64695 9917 ft 256 kts 249°
2026-04-26 17:43 39.11834 -104.66597 9906 ft 236 kts 228°
2026-04-26 17:44 39.10588 -104.67861 9918 ft 226 kts 209°
2026-04-26 17:44 39.09075 -104.68470 9926 ft 227 kts 190°
2026-04-26 17:44 39.07538 -104.68504 9948 ft 220 kts 184°
2026-04-26 17:44 39.05999 -104.68519 9949 ft 221 kts 185°
2026-04-26 17:45 39.04448 -104.68530 9844 ft 223 kts 184°
2026-04-26 17:45 39.02888 -104.68533 9683 ft 226 kts 184°
2026-04-26 17:45 39.01347 -104.68533 9477 ft 215 kts 184°
2026-04-26 17:45 38.99884 -104.68532 9316 ft 207 kts 184°
2026-04-26 17:46 38.98447 -104.68534 9137 ft 206 kts 184°
2026-04-26 17:46 38.97010 -104.68537 8979 ft 203 kts 184°
2026-04-26 17:46 38.95696 -104.68536 8962 ft 184 kts 184°
2026-04-26 17:46 38.94401 -104.68545 8778 ft 185 kts 183°
2026-04-26 17:47 38.93096 -104.68549 8534 ft 188 kts 184°
2026-04-26 17:47 38.92232 -104.68553 8369 ft 187 kts 183°
2026-04-26 17:47 38.90663 -104.68552 8058 ft 153 kts 184°
2026-04-26 17:47 38.89675 -104.68554 7872 ft 132 kts 184°
2026-04-26 17:48 38.88780 -104.68555 7701 ft 125 kts 182°
2026-04-26 17:48 38.87939 -104.68550 7499 ft 119 kts 182°
2026-04-26 17:48 38.87108 -104.68552 7350 ft 122 kts 182°
2026-04-26 17:48 38.86252 -104.68559 7213 ft 126 kts 182°
2026-04-26 17:49 38.85375 -104.68566 7022 ft 126 kts 180°
2026-04-26 17:49 38.84495 -104.68577 6837 ft 130 kts 180°
2026-04-26 17:49 38.83575 -104.68572 6666 ft 131 kts 179°
2026-04-26 17:49 38.82675 -104.68567 6457 ft 132 kts 180°
2026-04-26 17:50 38.81782 -104.68575 6256 ft 125 kts 179°
2026-04-26 17:50 38.80952 -104.68577 6171 ft 108 kts 178°
2026-04-26 17:50 38.80288 -104.68578 6149 ft 76 kts 180°
2026-04-26 17:50 38.79925 -104.68577 6142 ft 34 kts 180°
2026-04-26 17:51 38.79691 -104.68578 6139 ft 32 kts 180°
2026-04-26 17:51 38.79476 -104.68578 6135 ft 29 kts 180°
2026-04-26 17:51 38.79360 -104.68585 6133 ft 10 kts 193°
2026-04-26 17:51 38.79291 -104.68611 6132 ft 10 kts 197°
2026-04-26 17:52 38.79207 -104.68652 6131 ft 16 kts 206°
2026-04-26 17:52 38.79133 -104.68712 6130 ft 7 kts 237°
2026-04-26 17:52 38.79129 -104.68726 6130 ft 0 kts 255°
2026-04-26 17:52 38.79129 -104.68730 6130 ft 2 kts 263°
2026-04-26 17:53 38.79137 -104.68764 6130 ft 8 kts 300°
2026-04-26 17:53 38.79205 -104.68790 6131 ft 13 kts
2026-04-26 17:53 38.79285 -104.68789 6132 ft 10 kts
2026-04-26 17:54 38.79420 -104.68789 6134 ft 12 kts
2026-04-26 17:54 38.79506 -104.68790 6136 ft 12 kts
2026-04-26 17:54 38.79581 -104.68790 6137 ft 10 kts 359°
2026-04-26 17:54 38.79640 -104.68790 6138 ft 8 kts
2026-04-26 17:55 38.79688 -104.68790 6139 ft 8 kts
2026-04-26 17:55 38.79762 -104.68790 6140 ft 11 kts 359°
2026-04-26 17:55 38.79829 -104.68789 6141 ft 8 kts
2026-04-26 17:55 38.79881 -104.68788 6142 ft 6 kts 360°
2026-04-26 17:56 38.79929 -104.68789 6142 ft 9 kts 359°
2026-04-26 17:56 38.80105 -104.68789 6145 ft 16 kts 360°
2026-04-26 17:57 38.80353 -104.68810 6149 ft 15 kts 311°
2026-04-26 17:57 38.80360 -104.68954 6149 ft 19 kts 269°
2026-04-26 17:57 38.80360 -104.69145 6149 ft 23 kts 270°
2026-04-26 17:57 38.80361 -104.69363 6149 ft 24 kts 270°
2026-04-26 17:58 38.80360 -104.69890 6149 ft 26 kts 269°
2026-04-26 17:59 38.80361 -104.70296 6149 ft 21 kts 270°
2026-04-26 17:59 38.80361 -104.70477 6149 ft 20 kts 270°
2026-04-26 17:59 38.80362 -104.70652 6149 ft 20 kts 270°
2026-04-26 17:59 38.80362 -104.70835 6149 ft 20 kts 270°
2026-04-26 18:00 38.80361 -104.71010 6149 ft 19 kts 270°
2026-04-26 18:00 38.80362 -104.71172 6149 ft 18 kts 270°
2026-04-26 18:00 38.80362 -104.71324 6149 ft 16 kts 270°
2026-04-26 18:00 38.80362 -104.71464 6149 ft 15 kts 270°
2026-04-26 18:01 38.80364 -104.71594 6149 ft 14 kts 270°
2026-04-26 18:01 38.80372 -104.71712 6149 ft 12 kts 304°
2026-04-26 18:01 38.80443 -104.71733 6150 ft 10 kts
2026-04-26 18:01 38.80510 -104.71733 6151 ft 11 kts 360°
2026-04-26 18:02 38.80584 -104.71734 6152 ft 9 kts 352°
2026-04-26 18:02 38.80603 -104.71746 6153 ft 9 kts 323°
2026-04-26 18:02 38.80622 -104.71884 6153 ft 11 kts 272°
2026-04-26 18:02 38.80652 -104.71954 6154 ft 9 kts 339°
2026-04-26 18:03 38.80706 -104.71959 6154 ft 8 kts
2026-04-26 18:03 38.80765 -104.71955 6155 ft 8 kts
2026-04-26 18:03 38.80807 -104.71965 6156 ft 5 kts 305°
2026-04-26 18:03 38.80792 -104.72000 6156 ft 6 kts 198°
2026-04-26 18:04 38.80777 -104.72001 6156 ft 0 kts 181°